RH
11 16 23 25 24 23 22 19 18 17 17 18 19 20 19 18 18 19 22 20 18 18 14 12 11 10 8 8 9 10 11 11 10 10 9 10 10 11 11 12 12 12 12 13 14 15 15 15 15 14 13 12 12 12 12 12 13 13 13 12 11 11 11 11 11 11 11 11 11 11 12 12 12 12 12 12 12 13 13 15 16 17 18 19 21 22
10 18 25 24 21 19 19 17 16 16 17 17 17 17 18 17 16 18 21 18 15 15 12 10 9 8 7 7 7 8 11 11 11 10 10 10 10 11 11 11 12 12 12 13 13 14 14 14 14 12 10 10 10 11 11 11 11 12 12 11 10 10 11 10 10 10 11 11 11 12 12 12 13 13 14 14 14 15 16 18 19 21 22 23 24 26
16 20 21 18 16 15 14 14 14 15 16 15 14 15 15 15 13 15 19 16 12 15 13 10 10 10 9 8 8 8 9 11 11 11 11 10 10 10 11 11 11 12 12 12 12 13 12 13 13 10 8 8 9 9 10 10 10 10 10 9 9 9 10 10 10 11 11 12 12 12 13 13 14 15 16 17 18 19 21 22 24 25 26 28 29 31
22 22 18 14 13 13 12 11 12 13 14 15 14 13 14 14 14 13 15 14 12 13 12 12 15 14 12 11 10 9 9 9 11 11 11 11 11 11 11 11 12 12 12 12 12 12 12 12 12 10 8 8 8 9 9 9 9 8 9 8 9 9 10 10 11 12 12 13 13 14 14 15 15 17 18 20 22 24 26 27 28 29 30 32 33 36
20 18 16 14 13 12 12 12 13 12 14 17 16 13 12 12 12 11 11 12 11 12 15 19 21 17 13 13 12 10 11 10 11 13 12 12 12 12 12 12 13 13 14 14 14 14 14 14 12 10 9 9 9 9 9 8 9 8 9 9 9 10 11 12 13 14 14 14 15 15 16 17 18 20 23 25 27 29 30 30 31 32 32 34 37 39
15 13 13 14 13 12 13 13 13 11 11 14 18 16 13 11 11 12 12 13 12 14 21 24 22 17 11 11 12 12 13 12 14 15 14 14 14 14 14 14 15 15 16 17 17 17 17 15 13 12 12 12 12 11 10 10 10 10 11 11 12 13 13 15 16 16 16 16 17 17 19 21 23 25 27 29 30 31 31 32 33 34 36 38 41 43
12 11 12 14 13 13 14 14 13 11 9 11 16 18 16 12 13 14 15 17 15 14 20 24 22 19 14 12 13 15 16 16 16 18 17 16 16 16 16 16 16 17 18 18 18 19 18 17 16 14 14 14 14 13 13 13 13 13 14 15 16 16 17 18 18 18 18 19 20 21 24 27 28 28 29 31 32 33 34 36 37 39 41 44 46 44
14 12 13 14 13 14 14 14 14 12 10 14 17 17 17 16 16 18 18 19 17 14 20 24 23 24 22 16 15 17 19 19 18 19 19 18 17 18 18 18 18 18 19 18 19 19 19 19 18 17 15 15 16 16 16 16 17 17 18 19 20 20 21 21 21 21 21 22 24 26 28 29 29 30 31 32 33 35 36 38 40 43 46 47 45 42
16 14 14 15 14 15 14 14 15 14 13 17 18 17 17 18 18 19 19 18 17 19 23 23 24 29 26 17 15 17 18 20 20 19 20 19 18 18 19 19 19 19 19 19 19 20 20 19 20 20 17 16 17 17 18 18 19 20 21 22 23 23 23 23 24 24 25 26 28 29 29 29 30 31 32 33 34 36 38 40 43 47 47 45 42 40
17 17 16 16 15 15 15 15 16 15 16 17 18 19 20 21 21 20 21 19 19 25 25 21 23 28 23 13 13 16 16 17 18 18 18 18 17 18 18 19 20 20 21 20 20 21 21 20 20 21 21 19 17 17 18 19 20 20 22 23 24 24 24 25 25 26 27 29 30 29 29 30 31 32 33 34 36 38 41 44 48 49 46 44 42 42
18 18 16 16 16 15 15 17 18 17 18 18 20 22 21 22 23 22 23 21 23 30 26 21 23 23 20 14 12 15 14 14 15 15 15 16 16 17 16 18 20 21 22 22 21 22 22 22 22 23 24 22 20 19 19 20 20 21 22 23 23 24 24 25 26 27 29 29 29 29 30 32 33 33 34 35 37 41 45 49 51 48 45 44 45 45
20 19 17 18 17 16 16 18 19 18 18 19 19 18 17 20 21 22 22 22 28 32 23 20 22 21 20 17 14 15 14 14 16 14 14 15 16 16 16 17 19 21 22 22 22 22 22 23 24 25 26 25 24 22 22 22 21 22 22 23 23 24 25 26 27 29 29 29 30 31 33 34 34 34 35 37 40 45 50 52 50 46 45 46 47 47
21 21 19 20 18 16 17 16 18 20 19 19 17 15 19 21 20 21 23 25 29 28 20 18 20 20 19 17 15 16 16 16 17 15 14 15 15 15 15 17 18 20 21 21 21 21 21 22 24 25 25 25 26 25 25 25 25 25 26 26 26 26 27 28 29 29 28 29 31 33 35 35 35 36 37 39 44 50 53 52 48 46 46 48 49 48
19 22 22 21 17 17 17 13 15 19 19 19 17 15 19 22 21 23 23 23 25 23 18 17 19 20 18 16 17 17 17 18 17 15 15 14 14 15 16 17 19 19 20 20 21 20 21 22 23 24 24 24 26 27 27 27 27 28 29 30 30 30 30 29 28 28 28 30 33 34 35 36 36 38 40 43 49 53 53 50 46 45 46 47 47 46
17 21 21 20 17 18 19 15 15 17 17 18 16 14 18 20 21 24 23 24 27 24 19 18 21 22 19 17 20 19 18 18 17 16 16 15 15 15 17 19 19 19 20 21 22 21 22 22 23 24 25 25 25 26 27 27 27 28 30 31 32 32 31 30 29 29 30 32 34 35 36 37 38 40 43 48 53 54 51 47 44 44 44 43 42 42
16 18 22 22 20 20 20 18 17 16 15 16 15 16 20 19 18 22 23 21 24 26 23 21 21 20 17 16 20 21 20 19 19 19 18 17 17 17 18 20 19 20 21 23 23 24 24 24 24 25 25 26 26 26 27 27 27 28 29 29 30 31 31 30 30 31 33 34 35 37 37 38 41 43 47 53 55 52 48 44 42 42 41 40 39 40
16 18 24 25 22 21 21 20 21 19 17 16 17 20 21 19 17 21 23 20 22 29 27 22 20 19 16 17 19 21 21 21 22 22 21 20 20 21 21 21 20 21 22 22 23 24 25 26 26 26 27 27 27 27 27 27 27 28 28 28 28 29 30 31 31 33 36 37 37 38 40 42 44 47 52 56 55 50 45 43 43 42 41 40 39 40
17 19 25 25 24 25 24 23 23 24 22 19 20 22 21 21 20 21 24 26 29 33 27 21 22 22 20 19 19 21 22 22 23 24 23 22 23 24 23 22 22 23 23 23 24 25 26 26 27 27 28 29 28 28 27 27 27 28 28 28 28 28 29 31 33 35 38 39 39 41 43 46 48 52 56 57 52 47 44 44 44 43 41 40 40 41
19 19 23 25 27 28 27 26 25 26 26 23 23 24 23 26 27 24 26 30 32 34 30 24 23 23 22 20 18 21 23 22 23 24 24 24 25 25 23 23 24 25 25 25 25 25 26 26 27 28 29 30 29 29 28 27 27 27 27 27 28 29 31 33 36 37 39 41 42 45 47 49 53 57 58 55 49 45 44 46 45 43 42 41 40 40
20 20 22 25 27 28 28 28 27 28 31 29 27 27 25 28 30 29 29 32 35 36 34 29 26 23 21 19 19 22 24 24 23 24 26 27 27 25 24 24 26 27 26 26 26 26 26 27 28 29 29 30 30 29 29 28 28 28 28 29 30 32 33 35 37 39 41 44 47 49 51 54 59 61 59 54 47 45 47 47 45 43 42 41 39 39
22 21 22 25 28 27 27 28 27 28 33 33 31 32 31 30 31 32 32 32 35 39 38 35 30 23 18 19 22 23 25 26 25 25 27 28 25 24 24 25 26 28 28 28 28 28 28 29 30 30 30 30 30 30 29 29 29 29 30 31 33 35 36 38 40 41 44 47 50 53 56 59 62 63 59 53 48 47 49 47 45 43 42 40 39 39
24 22 22 24 26 25 25 27 27 29 31 32 34 34 34 34 35 37 38 35 35 38 39 37 34 25 18 21 24 25 27 28 27 28 28 26 23 23 23 24 25 27 29 30 31 31 31 31 32 32 32 32 31 30 30 30 31 31 32 34 35 37 39 41 43 45 48 51 54 57 60 63 65 63 59 53 49 50 50 47 44 43 42 41 40 39
24 24 24 23 23 23 25 28 29 31 31 32 34 33 34 38 37 38 41 40 40 41 38 38 39 28 19 22 27 28 29 29 29 30 29 27 25 25 25 24 25 27 29 32 33 34 34 34 35 35 34 34 33 32 32 32 32 33 34 36 38 40 42 44 46 49 53 55 57 60 63 65 66 64 59 54 53 53 50 46 43 43 43 42 41 40
25 25 26 26 24 23 26 28 29 31 32 32 33 32 34 38 37 38 40 40 43 43 39 43 43 29 22 27 31 31 29 29 31 31 30 28 27 28 28 27 28 30 31 33 35 35 36 37 38 38 37 36 35 34 34 34 34 35 36 38 40 43 45 47 50 54 57 60 61 62 65 67 67 64 59 56 56 54 49 45 44 45 45 43 42 40
26 27 28 30 30 28 29 30 31 33 33 32 32 32 34 35 38 42 42 42 45 39 36 44 43 29 27 33 34 32 32 32 34 33 31 30 30 30 31 31 32 33 34 36 37 37 38 40 41 41 40 38 37 36 36 36 36 37 38 39 43 46 48 50 54 58 61 63 64 64 67 69 68 64 60 58 58 53 47 46 46 46 45 44 42 40
28 27 27 31 33 32 31 30 32 34 33 32 32 32 34 36 39 41 41 46 48 38 35 43 40 29 28 32 34 34 35 36 36 35 34 34 34 33 33 35 36 37 37 38 39 39 40 41 43 44 43 42 40 39 39 39 39 39 40 42 45 48 51 54 58 61 64 66 65 66 70 70 67 64 61 60 56 51 48 48 48 47 45 44 42 40
30 29 27 28 29 29 28 28 29 31 32 33 32 33 34 36 38 39 39 42 42 40 39 38 37 35 30 28 33 36 36 38 38 36 36 37 37 37 37 38 39 39 39 40 42 43 43 43 45 46 46 45 43 42 42 41 41 41 42 44 47 51 54 58 61 64 67 69 67 68 73 72 67 65 62 58 53 51 50 50 48 47 46 43 41 40
32 31 29 29 29 27 26 26 28 29 29 29 31 32 34 36 38 40 39 35 35 41 40 32 34 39 33 28 33 36 36 37 35 35 36 37 39 41 42 42 42 43 43 44 46 47 46 46 46 47 48 47 46 45 45 45 44 44 45 47 50 54 58 61 64 66 70 71 69 72 75 73 69 66 62 56 53 53 52 50 49 47 45 42 41 40
33 33 30 31 31 28 27 27 27 29 29 29 30 30 31 34 37 38 35 31 33 38 36 29 31 35 31 30 34 35 36 36 34 35 37 38 41 43 45 46 47 48 48 49 50 50 49 48 48 49 50 49 48 47 47 48 47 47 49 50 53 58 61 64 67 69 72 73 73 75 76 74 71 67 62 56 54 54 53 51 50 47 44 42 41 40
34 34 32 34 34 29 28 30 30 31 32 31 31 30 27 28 31 33 33 31 32 35 33 31 33 30 27 31 35 35 37 37 37 38 38 40 43 45 47 49 51 52 53 53 53 52 50 50 50 51 52 51 50 49 49 49 50 51 52 54 58 62 65 68 70 72 74 76 78 78 76 74 72 68 62 57 55 55 54 52 49 46 44 42 41 40
34 36 35 36 37 31 27 29 32 33 33 32 31 30 27 26 27 29 31 30 33 36 33 33 37 33 28 32 36 37 37 38 39 39 39 41 44 47 49 51 54 57 58 58 56 53 51 52 53 55 55 54 53 52 52 52 53 54 56 58 62 66 68 71 73 75 77 79 81 81 78 75 73 68 61 57 56 56 54 52 49 46 43 42 41 40
35 37 35 35 39 32 24 29 33 32 33 34 32 28 26 27 27 27 28 30 33 36 36 37 40 37 33 36 38 38 39 40 40 40 42 45 49 52 54 56 59 61 62 62 59 55 54 55 56 57 57 57 57 56 56 57 57 59 60 63 67 70 72 75 77 79 80 81 83 83 79 76 73 67 61 57 57 57 54 51 48 45 43 42 41 39
36 38 36 38 41 33 26 31 34 34 38 36 31 28 27 27 28 28 29 32 34 37 41 42 42 40 39 41 41 40 41 43 43 46 49 52 56 59 61 62 63 63 63 63 60 58 58 58 57 58 58 60 61 61 61 61 62 64 66 69 71 73 76 78 80 81 82 83 85 84 79 76 72 65 60 58 58 56 53 50 47 44 43 43 41 39
38 39 38 38 40 36 31 33 38 42 43 35 28 30 32 30 32 33 33 35 37 40 43 44 44 44 45 46 46 46 47 48 49 52 57 61 64 65 65 65 65 65 63 62 61 61 61 61 60 60 62 64 65 65 66 67 68 70 72 74 75 77 79 81 82 82 84 86 87 82 78 76 70 63 60 59 58 56 53 49 46 44 44 43 41 39
40 42 41 40 42 42 37 40 50 50 40 32 32 34 34 34 35 36 37 39 43 44 46 48 49 51 51 52 53 55 55 55 56 59 63 67 68 70 69 67 66 66 65 64 63 63 64 65 66 66 67 69 70 70 71 72 73 75 76 77 78 80 81 83 83 84 87 89 86 81 78 74 67 62 60 59 58 55 52 48 46 45 44 43 41 39
38 42 44 43 46 49 46 48 54 47 34 34 38 36 35 37 38 40 43 47 50 51 52 55 57 58 60 61 62 65 66 65 64 65 68 71 72 72 72 69 67 68 69 68 67 67 67 69 71 71 72 72 73 74 75 76 77 77 79 80 81 82 83 84 84 87 90 89 84 80 77 72 65 62 60 59 57 54 51 48 46 45 44 42 41 41
35 41 47 50 51 52 53 53 51 46 42 43 42 40 43 45 46 51 53 56 60 62 63 66 68 68 70 71 72 72 73 73 70 68 69 72 74 74 74 72 72 73 73 73 73 72 72 73 73 74 75 75 76 77 78 79 80 80 81 82 83 84 85 86 88 91 92 88 82 79 76 70 65 62 60 58 56 53 50 48 46 45 44 42 42 42
38 41 50 58 58 55 59 63 62 60 60 59 56 55 56 57 59 64 66 67 70 74 75 78 79 79 79 80 79 77 78 80 77 71 70 73 75 75 76 76 76 76 76 77 78 77 77 76 75 76 77 78 80 80 81 82 83 83 84 84 85 87 87 88 91 94 91 85 81 79 75 68 64 62 60 58 55 52 49 47 46 46 44 43 43 44
49 51 57 68 71 67 72 77 74 71 72 75 75 72 70 70 70 72 76 79 79 81 84 85 85 85 85 86 85 83 85 89 84 74 73 77 79 79 79 77 75 76 77 78 78 79 78 77 77 78 79 81 82 83 84 85 86 86 87 88 89 91 91 91 93 93 88 83 81 78 72 67 63 61 59 57 54 51 49 47 46 46 45 44 45 45
65 67 71 78 79 77 83 88 81 76 81 85 84 83 82 79 77 80 88 91 87 86 88 89 89 89 89 89 89 87 89 93 91 83 79 81 81 81 82 83 81 80 79 80 81 82 82 82 82 82 83 84 85 86 87 87 88 89 90 91 93 93 93 93 93 90 86 83 81 76 70 65 62 60 58 56 53 51 49 48 47 47 46 46 47 48
75 76 77 81 83 82 89 94 87 85 92 92 89 89 88 82 81 90 98 97 93 90 90 91 91 91 89 89 90 89 88 90 91 90 87 87 86 84 84 88 89 87 85 85 86 88 88 87 86 87 87 87 88 88 89 89 90 91 92 93 94 94 94 93 91 88 85 82 80 74 68 64 61 59 58 56 53 51 49 48 48 48 48 48 49 49
88 88 84 87 90 89 90 93 92 92 96 95 91 89 88 86 90 97 99 96 94 93 91 90 88 87 86 86 87 88 86 83 84 86 86 86 86 85 85 88 91 91 89 88 90 92 92 90 89 89 89 90 90 90 91 91 92 93 94 95 95 95 95 93 89 87 84 82 78 72 67 63 61 60 59 56 53 51 50 49 50 49 49 50 50 50
92 95 92 92 94 93 92 95 98 98 96 94 90 87 88 92 98 100 97 93 90 89 88 87 84 82 83 83 82 81 79 76 75 76 75 75 75 76 77 80 85 88 88 90 92 93 92 91 90 90 91 91 91 92 92 93 94 94 95 95 95 96 95 92 89 86 84 81 76 70 65 62 60 60 58 55 53 52 50 50 51 51 51 51 51 51
92 95 96 94 94 96 97 97 98 99 97 94 93 93 94 97 97 96 94 90 85 83 84 83 80 78 80 81 79 75 71 67 64 61 60 60 60 62 64 66 70 74 77 81 88 92 94 94 92 92 92 93 93 94 94 94 95 95 96 96 96 96 95 92 89 86 84 79 74 69 65 62 61 60 58 55 53 52 50 51 52 52 52 52 53 53
89 90 92 93 93 94 96 96 95 96 95 91 90 93 97 95 90 88 87 84 81 79 79 79 78 75 72 71 69 65 59 54 49 46 44 43 42 44 48 51 55 58 61 64 71 80 87 92 94 95 94 94 94 95 95 96 96 97 97 97 97 97 95 92 89 86 83 78 72 68 64 62 61 60 58 56 54 52 51 52 52 53 54 54 55 55
82 83 85 87 87 85 86 91 92 91 89 86 86 90 92 89 85 83 83 82 82 81 80 77 73 67 61 57 55 53 47 42 41 41 39 37 37 37 40 45 50 53 56 58 62 66 73 82 89 93 95 96 96 96 96 96 97 98 98 98 98 97 94 91 89 86 82 77 72 67 65 63 61 60 58 56 54 52 52 52 53 54 55 56 57 57
78 80 80 79 79 81 83 85 84 82 80 80 81 83 83 82 81 83 85 84 81 77 72 66 62 58 54 52 54 55 50 46 48 50 48 46 45 45 45 48 52 55 57 60 62 65 69 76 82 87 91 94 97 97 98 98 98 99 99 99 99 97 94 92 89 86 80 75 71 67 65 63 62 60 58 56 55 53 53 53 54 55 56 57 58 58
82 81 80 77 77 79 80 77 73 71 71 73 77 78 75 73 71 72 76 77 72 67 62 59 58 59 59 58 61 64 61 58 60 62 59 56 54 54 54 55 57 59 59 60 63 67 73 78 82 85 86 88 92 96 99 99 99 100 100 100 99 97 94 92 89 85 79 74 70 68 65 64 62 60 59 57 56 55 54 55 56 57 57 57 58 58
86 83 82 81 78 77 77 75 74 72 67 65 69 74 76 77 75 70 68 68 67 67 68 67 66 68 69 70 71 72 70 67 66 66 64 61 59 58 59 59 60 60 61 62 66 72 77 80 84 87 87 87 91 96 99 100 101 100 100 101 99 96 94 92 89 83 78 74 71 68 66 65 63 61 59 58 57 57 56 57 58 59 58 58 59 60
88 86 84 85 85 82 78 76 80 84 78 68 64 68 73 79 83 79 73 70 70 71 73 73 72 71 71 74 77 78 75 70 67 65 62 60 60 61 61 61 61 62 65 71 75 79 81 81 83 87 88 90 94 99 100 101 100 100 100 101 98 95 93 92 87 82 77 74 71 69 67 65 64 62 61 60 60 60 60 59 60 61 60 60 60 61
86 85 83 84 86 81 76 76 82 88 86 76 68 66 66 70 74 73 69 67 66 67 69 72 72 70 68 67 71 77 78 74 69 67 63 61 63 65 65 66 69 72 76 79 81 81 82 83 86 88 90 93 97 100 100 100 100 100 100 100 97 94 92 90 86 80 76 73 71 69 68 66 65 64 62 61 61 62 62 62 62 63 63 63 64 64